Location: Silent Lake
(44.9206°N, 78.0708°W)
Time: 22:10:38
(UTC-04:00)

Cosmos 1727 Rocket - Pass Details

Date: 19 April 2018
Orbit: 960 x 997 km, 82.9° (Epoch: 18 September)

Event Time Altitude Azimuth Distance (km) Brightness Sun altitude
Rises 21:54:24 0° 353° (N) 3,664 7.7 -18.2°
Reaches altitude 10° 21:56:57 10° 357° (N) 2,710 6.9 -18.6°
Maximum altitude 22:03:07 68° 80° (E) 1,035 3.9 -19.4°
Enters shadow 22:06:03 32° 153° (SSE) 1,582 4.6 -19.8°
